TimeMDT,TemperatureF,Dew PointF,Humidity,Sea Level PressureIn,VisibilityMPH,Wind Direction,Wind SpeedMPH,Gust SpeedMPH,PrecipitationIn,Events,Conditions,WindDirDegrees,DateUTC
12:53 AM,53.1,50.0,89,29.83,10.0,NW,9.2,-,N/A,,Overcast,320,2013-05-17 06:53:00
1:53 AM,52.0,48.9,89,29.83,10.0,NW,6.9,-,N/A,,Overcast,310,2013-05-17 07:53:00
2:53 AM,53.1,48.0,83,29.82,10.0,WSW,5.8,-,N/A,,Overcast,250,2013-05-17 08:53:00
3:53 AM,52.0,48.9,89,29.83,10.0,WNW,5.8,-,N/A,,Overcast,300,2013-05-17 09:53:00
4:53 AM,51.1,48.0,89,29.82,10.0,WNW,6.9,-,N/A,,Overcast,290,2013-05-17 10:53:00
5:18 AM,51.1,48.0,89,29.86,10.0,West,5.8,-,N/A,,Mostly Cloudy,280,2013-05-17 11:18:00
5:53 AM,51.8,48.2,88,29.87,10.0,SSW,4.6,-,N/A,,Mostly Cloudy,210,2013-05-17 11:53:00
6:53 AM,51.1,48.9,92,29.86,10.0,SSW,5.8,-,N/A,,Mostly Cloudy,200,2013-05-17 12:53:00
7:53 AM,53.1,48.0,83,29.86,10.0,SSW,5.8,-,N/A,,Mostly Cloudy,210,2013-05-17 13:53:00
8:53 AM,55.0,48.0,77,29.86,10.0,WSW,3.5,-,N/A,,Mostly Cloudy,240,2013-05-17 14:53:00
9:53 AM,55.9,48.9,77,29.85,10.0,SW,4.6,-,N/A,,Mostly Cloudy,230,2013-05-17 15:53:00
10:53 AM,55.0,50.0,83,29.86,10.0,South,4.6,-,0.01,Rain,Light Rain,180,2013-05-17 16:53:00
11:53 AM,54.0,51.1,90,29.87,10.0,South,6.9,-,0.03,Rain,Light Rain,170,2013-05-17 17:53:00
12:53 PM,59.0,51.1,75,29.83,10.0,Variable,3.5,-,0.00,,Mostly Cloudy,0,2013-05-17 18:53:00
1:40 PM,59.0,50.0,72,29.86,10.0,ENE,4.6,-,N/A,,Mostly Cloudy,60,2013-05-17 19:40:00
1:53 PM,59.0,48.9,69,29.82,10.0,East,8.1,-,N/A,,Mostly Cloudy,100,2013-05-17 19:53:00
2:21 PM,59.0,51.1,75,29.85,10.0,ENE,3.5,-,N/A,,Mostly Cloudy,60,2013-05-17 20:21:00
2:53 PM,59.0,51.1,75,29.83,10.0,East,3.5,-,N/A,,Mostly Cloudy,100,2013-05-17 20:53:00
3:00 PM,59.0,52.0,78,29.85,10.0,East,5.8,-,N/A,,Overcast,80,2013-05-17 21:00:00
3:18 PM,59.0,52.0,78,29.85,10.0,NE,6.9,-,N/A,,Mostly Cloudy,50,2013-05-17 21:18:00
3:53 PM,57.9,53.1,84,29.81,10.0,ENE,8.1,-,N/A,,Overcast,60,2013-05-17 21:53:00
4:03 PM,57.9,53.1,84,29.85,10.0,ENE,6.9,-,N/A,,Overcast,70,2013-05-17 22:03:00
4:53 PM,57.0,54.0,89,29.83,7.0,NE,4.6,-,0.02,Rain,Light Rain,40,2013-05-17 22:53:00
5:13 PM,57.0,54.0,89,29.85,4.0,NE,5.8,-,0.02,Rain,Rain,40,2013-05-17 23:13:00
5:53 PM,55.9,53.1,90,29.83,9.0,North,4.6,-,0.06,Rain,Light Rain,360,2013-05-17 23:53:00
6:53 PM,55.0,53.1,93,29.81,6.0,North,9.2,-,0.04,Rain,Light Rain,10,2013-05-18 00:53:00
7:53 PM,55.0,53.1,93,29.82,10.0,North,5.8,-,0.01,,Overcast,350,2013-05-18 01:53:00
8:00 PM,55.9,54.0,93,29.85,10.0,North,6.9,-,N/A,,Overcast,360,2013-05-18 02:00:00
8:53 PM,55.0,54.0,96,29.84,10.0,SW,3.5,-,N/A,,Overcast,230,2013-05-18 02:53:00
9:53 PM,54.0,52.0,93,29.86,10.0,Calm,Calm,-,N/A,,Scattered Clouds,0,2013-05-18 03:53:00
10:53 PM,55.0,52.0,89,29.84,10.0,Calm,Calm,-,N/A,,Mostly Cloudy,0,2013-05-18 04:53:00
11:53 PM,52.0,51.1,97,29.87,10.0,NW,5.8,-,N/A,,Mostly Cloudy,310,2013-05-18 05:53:00